Weather in Mirny

Russia / Kemerovo Oblast     54°36′45″N   85°55′21″E
temp.,
°C
wind,
m/s
gust,
m/s
humid.,
%
clouds,
%
prec.,
mm/h
press.,
hPa
HPBL,
m
2 december, thu
thu201:00−12s2288100 0.0 102920
04:00−12s3588100 0.0 102852
07:00−12s368699 0.0 102860
10:00−13sse2289100 0.0 102722
13:00−5s3683100 0.0 1025109
16:00−4sse378515 0.0 102488
19:00−9sse338530 0.0 102433
22:00−10s33835 0.0 102331
3 december, fri
fri301:00−8sse34803 0.0 102049
04:00−10sse338385 0.0 101934
07:00−9sse34815 0.0 101740
10:00−6s41174100 0.0 1015126
13:00+1sw102254100 0.0 1013584
16:000sw71774100 0.0 1013627
19:00+1sw71792100 1.3 1012701
22:000sw71494100 1.7 1012794
4 december, sat
sat401:000wsw71396100 3.2 1014680
04:000wsw71289100 0.5 1017873
07:00−2sw81582100 0.6 1020691
10:00−3sw81583100 0.0 1022810
13:00−2wsw81484100 0.1 10231040
16:00−4wsw81484100 0.1 1026901
19:00−5wsw5118799 0.1 1029463
22:00−6wsw5108599 0.0 1031467
5 december, sun
sun501:00−9sw499212 0.0 1033144
04:00−11ssw3794100 0.0 1035106
07:00−13s349798 0.0 103440
10:00−11sse3595100 0.0 103380
13:00−8sse259414 0.0 1030141
16:00−8sse22965 0.0 102926
19:00−11s339613 0.0 102831
22:00−11s239637 0.0 102629
6 december, mon
mon601:00−11sse229745 0.0 102526
04:00−10sse3495100 0.0 102451
07:00−10s3495100 0.0 102248
10:00−8s2494100 0.0 102156
13:00−3ssw31088100 0.0 1019306
16:00−3s3787100 0.0 1018242
19:00−3s3787100 0.0 1017209
22:00−3sw61385100 0.0 1017554